{"data":{"norad_id":54074,"intl_designator":"2022-136Z","name":"STARLINK-5192","alt_names":[],"object_type":"PAYLOAD","status":"ACTIVE","operator":null,"country":"US","launch_date":"2022-10-20","launch_site_code":"AFETR","launch_vehicle":null,"mission":null,"orbit_class":"UNKNOWN","rcs_meters":null,"size_class":null,"mass_kg":null,"dimensions":null,"purposes":["comms"],"wikipedia_slug":null,"has_3d_model":false,"image_url":null,"decayed_at":null,"tle_current":{"epoch":"2026-05-25T00:38:02.840064Z","epoch_age_seconds":65966,"freshness":"FRESH","line1":"1 54074U 22136Z   26145.02642176  .00000132  00000+0  26386-4 0  9994","line2":"2 54074  53.2130   1.0459 0001583  89.7850 270.3324 15.08836924198374","mean_motion":15.08836924,"eccentricity":0.0001583,"inclination_deg":53.213,"raan_deg":1.0459,"arg_perigee_deg":89.785,"mean_anomaly_deg":270.3324,"bstar":2.6386e-5,"rev_number":19837,"period_min":95.437749242144,"perigee_km":538.65768912758,"apogee_km":540.84789303543,"semimajor_km":6917.8897910815,"source":"CELESTRAK","updated_at":"2026-05-25T13:38:17.652002Z"}}}